Weather in Fengyuan

Taiwan     24°09′49″N   120°38′49″E
temp.,
°C
wind,
m/s
gust,
m/s
humid.,
%
clouds,
%
prec.,
mm/h
press.,
hPa
HPBL,
m
1 march, mon
mon123:00+20se01690 0.0 101853
02:00+19sw117112 0.0 101766
05:00+18sse127213 0.0 101665
08:00+21wsw116518 0.0 1018170
11:00+25w225667 0.0 1018724
14:00+25wnw325560 0.0 1015734
17:00+24w226021 0.0 1015525
20:00+21ssw237110 0.0 1016307
2 march, tue
tue223:00+20s23740 0.0 1017248
02:00+20sse11707 0.0 101648
05:00+19n237573 0.7 1018217
08:00+19nne357375 0.8 1020284
11:00+21n575938 0.0 1021424
14:00+21n685465 0.0 1020495
17:00+18n696393 0.0 1021378
20:00+16nne576893 0.3 1023281
3 march, wed
wed323:00+16nne357399 0.6 1023238
02:00+16n127783 1.4 1022164
05:00+16n237585 0.2 1022204
08:00+17n237079 0.3 1023275
11:00+22nnw225430 0.2 1023668
14:00+23nnw445016 0.4 1020834
17:00+21nnw45592 0.1 1020483
20:00+18nne34741 0.2 1022245
4 march, thu
thu423:00+17n12780 0.0 1021194
02:00+16nnw12832 0.0 1020192
05:00+16nne018224 0.0 1020114
08:00+18nnw117318 0.0 1021239
11:00+23nw21540 0.0 1021688
14:00+24wnw33510 0.0 1018848
17:00+22nw22580 0.0 1018459
20:00+20n12680 0.0 1019212
5 march, fri
fri523:00+19ene01680 0.0 102063
02:00+19ese11670 0.0 101839
05:00+18nne01650 0.0 101843
08:00+20wsw01590 0.0 1019206
11:00+25wnw32469 0.0 1019743
14:00+25wnw444913 0.0 1016725
17:00+23wnw225818 0.0 1016527
20:00+20w116820 0.0 1017277